#timestamp,LO_Frequency,Hit 
1500253215.3,286047032.1,N
1500253235.1,286047032.9,N
1500253236.0,286047032.9,N
1500253255.8,286047033.0,N
1500253275.7,286047030.2,N
1500253295.5,286047034.5,N
1500253315.3,286047033.5,N
1500253335.1,286047036.4,N
1500253355.9,286047036.4,N
1500253375.7,286047034.1,N
1500253395.5,286047032.4,N
1500253415.4,286047034.0,N
1500253435.2,286047035.8,N
1500253455.0,286047035.9,N
1500253455.9,286047035.9,N
1500253475.8,286047037.1,N
1500253495.6,286047037.0,N
1500253515.4,286047035.1,N
1500253535.3,286047036.4,N
1500253555.1,286047033.7,N
1500253556.0,286047033.7,N
1500253575.8,286047035.0,N
1500253595.7,286047035.3,N
1500253615.5,286047038.7,N
1500253635.3,286047037.0,N
1500253655.2,286047039.0,N
1500253675.9,286047038.7,N
1500253695.7,286047039.3,N
1500253715.6,286047037.0,N
1500253735.4,286047037.4,N
1500253755.2,286047036.7,N
1500253775.0,286047037.6,N
1500253776.0,286047037.6,N
1500253795.8,286047037.2,N
1500253815.6,286047037.1,N
1500253835.4,286047039.4,N
1500253855.3,286047038.2,N
1500253875.1,286047038.3,N
1500253895.8,286047038.8,N
1500253915.7,286047038.8,N
1500253935.5,286047038.2,N
1500253955.3,286047039.3,N
1500253975.2,286047038.5,N
1500253995.9,286047041.1,N
1500254015.7,286047041.1,N
1500254035.6,286047040.9,N
1500254055.4,286047038.1,N
1500254075.2,286047038.9,N
1500254095.1,286047040.5,N
1500254096.0,286047040.5,N
1500254115.8,286047043.5,N
1500254135.6,286047043.5,N
1500254155.5,286047043.9,N
1500254175.3,286047041.3,N
1500254195.1,286047041.9,N
1500254215.9,286047039.9,N
1500254235.7,286047039.9,N
1500254255.5,286047039.8,N
1500254275.3,286047042.2,N
1500254295.2,286047042.4,N
1500254315.0,286047040.3,N
1500254315.9,286047040.3,N
1500254335.7,286047042.7,N
1500254355.6,286047041.8,N
1500254375.4,286047039.7,N
1500254395.2,286047044.2,N
1500254415.1,286047042.9,N
1500254416.0,286047042.9,N
1500254435.8,286047043.0,N
1500254455.6,286047041.4,N
1500254475.5,286047042.1,N
1500254495.3,286047042.7,N
1500254515.1,286047041.3,N
1500254535.9,286047042.6,N
1500254555.7,286047040.1,N
1500254575.5,286047041.2,N
1500254595.4,286047041.5,N
1500254615.2,286047045.5,N
1500254635.0,286047045.7,N
1500254635.9,286047045.7,N
1500254655.8,286047045.1,N
1500254675.6,286047045.6,N
1500254695.4,286047044.0,N
1500254715.2,286047044.4,N
1500254735.1,286047041.8,N
1500254736.0,286047041.8,N
1500254755.8,286047043.8,N
1500254775.6,286047043.2,N
1500254795.5,286047045.7,N
1500254815.3,286047045.9,N
1500254835.1,286047043.4,N
1500254855.9,286047042.0,N
1500254875.7,286047044.4,N
1500254895.5,286047043.5,N
1500254915.4,286047044.1,N
1500254935.2,286047041.4,N
1500254955.0,286047041.8,N
1500254955.9,286047041.8,N
1500254975.8,286047042.5,N
1500254995.6,286047042.5,N
1500255015.4,286047042.6,N
1500255035.3,286047043.6,N
1500255055.1,286047043.4,N
1500255056.0,286047043.4,N
1500255075.8,286047043.3,N
1500255095.7,286047045.8,N
1500255115.5,286047044.6,N
1500255135.3,286047047.5,N
1500255155.2,286047047.0,N
1500255175.9,286047046.7,N
1500255195.7,286047048.0,N
1500255215.6,286047052.4,Y
1500255235.4,286047009.8,N
1500255255.2,286047009.4,N
1500255275.1,286047010.7,N
1500255276.0,286047010.7,N
1500255295.8,286047008.9,N
1500255315.6,286047008.4,N
1500255335.5,286047009.6,N
1500255355.3,286047012.2,N
1500255375.1,286047009.5,N
1500255395.9,286047011.0,N
1500255415.7,286047013.7,N
1500255435.5,286047013.3,N
1500255455.3,286047011.4,N
1500255475.2,286047009.5,N
1500255495.0,286047012.0,N
1500255495.9,286047012.0,N
1500255515.7,286047012.1,N
1500255535.6,286047009.7,N
1500255555.4,286047008.1,N
1500255575.2,286047013.9,N
1500255595.1,286047011.9,N
1500255596.0,286047011.9,N
1500255615.8,286047009.5,N
1500255635.6,286047012.6,N
1500255655.5,286047011.4,N
1500255675.3,286047010.5,N
1500255695.1,286047012.0,N
1500255715.9,286047009.5,N
1500255735.7,286047011.9,N
1500255755.5,286047012.9,N
1500255775.4,286047013.2,N
1500255795.2,286047013.9,N
1500255815.0,286047010.0,N
1500255815.9,286047010.0,N
1500255835.8,286047009.7,N
1500255855.6,286047007.7,N
1500255875.4,286047008.4,N
1500255895.3,286047008.9,N
1500255915.1,286047010.4,N
1500255916.0,286047010.4,N
1500255935.8,286047008.4,N
1500255955.7,286047010.4,N
1500255975.5,286047010.6,N
1500255995.3,286047009.9,N
1500256015.1,286047009.9,N
1500256035.9,286047007.8,N
1500256055.7,286047011.5,N
1500256075.5,286047011.2,N
1500256095.4,286047011.2,N
1500256115.2,286047012.1,N
1500256135.0,286047011.5,N
1500256135.9,286047011.5,N
1500256155.8,286047012.1,N
1500256175.6,286047012.1,N
1500256195.4,286047011.8,N
1500256215.3,286047011.3,N
1500256235.1,286047013.6,N
1500256236.0,286047013.6,N
1500256255.8,286047013.4,N
1500256275.7,286047013.9,N
1500256295.5,286047011.2,N
1500256315.3,286047013.6,N
1500256335.2,286047015.6,N
1500256355.9,286047013.0,N
1500256375.7,286047017.1,N
1500256395.6,286047014.2,N
1500256415.4,286047013.0,N
1500256435.2,286047015.2,N
1500256455.0,286047015.1,N
1500256456.0,286047015.1,N
1500256475.8,286047015.4,N
1500256495.6,286047013.4,N
1500256515.4,286047014.6,N
1500256535.3,286047014.9,N
1500256555.1,286047013.0,N
1500256575.8,286047015.1,N
1500256595.7,286047015.4,N
1500256615.5,286047015.5,N
1500256635.3,286047015.2,N
1500256655.2,286047015.2,N
1500256675.9,286047015.0,N
1500256695.7,286047014.7,N
1500256715.6,286047016.8,N
1500256735.4,286047017.0,N
1500256755.2,286047017.1,N
1500256775.1,286047014.9,N
1500256776.0,286047014.9,N
1500256795.8,286047016.8,N
